Simultaneous Nadir Overpasses (SNOs) Predictions

Prediction of SNOs between NPP and TERRA Satellite Orbit:

Table of predicted SNOs for the next 14.0 days since TLE Epoch: 4/1/2014
Index Date (NPP) Time (NPP) Lat,Lon (NPP) SZA (NPP ) Date (TERRA) Time (TERRA) Lat,Lon (TERRA) SZA (TERRA ) Distance(km) Time Diff (sec)
1 04/03/2014 07:21:20 -69.85,-112.78 115.54 04/03/2014 07:22:26 -69.74,-110.21 115.69 99.64 66
2 04/03/2014 08:11:45 68.72, 56.15 63.29 04/03/2014 08:12:09 68.75, 56.14 63.32 3.48 24
3 04/03/2014 09:02:27 -68.63,-136.42 116.82 04/03/2014 09:01:39 -68.64,-136.36 116.81 2.45 48
4 04/05/2014 23:38:02 -68.82, 4.46 117.62 04/05/2014 23:39:12 -68.83, 4.48 117.61 1.37 70
5 04/06/2014 00:28:46 68.69, 171.95 62.24 04/06/2014 00:28:40 68.66, 171.92 62.21 3.25 6
6 04/06/2014 01:19:25 -68.44, -20.41 118.03 04/06/2014 01:18:11 -68.50, -20.65 117.97 11.89 74
7 04/08/2014 15:55:02 -68.75, 120.32 118.70 04/08/2014 15:55:42 -68.76, 120.27 118.69 2.11 40
8 04/08/2014 16:45:46 68.62, -72.20 61.16 04/08/2014 16:45:09 68.64, -72.22 61.18 2.61 37
9 04/11/2014 07:21:26 69.10, 68.28 60.68 04/11/2014 07:22:37 69.02, 68.86 60.59 24.74 71
10 04/11/2014 08:12:03 -68.75,-123.91 119.70 04/11/2014 08:12:10 -68.75,-123.85 119.69 2.61 7
11 04/11/2014 09:02:46 68.56, 43.64 60.11 04/11/2014 09:01:38 68.58, 43.58 60.12 2.70 68
12 04/13/2014 23:38:20 68.79,-175.53 59.39 04/13/2014 23:39:07 68.80,-175.53 59.39 0.86 47
13 04/14/2014 00:29:02 -68.70, -8.08
